EDT,Max TemperatureF,Mean TemperatureF,Min TemperatureF,Max Dew PointF,MeanDew PointF,Min DewpointF,Max Humidity, Mean Humidity, Min Humidity, Max Sea Level PressureIn, Mean Sea Level PressureIn, Min Sea Level PressureIn, Max VisibilityMiles, Mean VisibilityMiles, Min VisibilityMiles, Max Wind SpeedMPH, Mean Wind SpeedMPH, Max Gust SpeedMPH,PrecipitationIn, CloudCover, Events, WindDirDegrees
2013-6-1,84,76,68,67,63,59,90,71,51,30.04,29.96,29.88,10,9,1,13,3,26,0.17,4,Rain-Thunderstorm,190
2013-6-2,72,69,65,66,64,62,93,86,78,29.99,29.93,29.87,10,9,2,10,1,21,0.14,7,Rain,227
2013-6-3,75,68,60,64,60,54,100,77,53,30.04,29.96,29.90,10,8,1,12,2,16,T,6,Rain,308
2013-6-4,76,66,56,58,55,53,93,72,50,30.10,30.06,30.02,10,10,10,7,1,13,0.00,2,,90
2013-6-5,82,71,60,67,60,51,87,69,51,30.04,29.98,29.91,10,10,6,7,2,16,0.01,4,Rain-Thunderstorm,195
2013-6-6,79,72,64,68,65,62,93,81,69,29.93,29.82,29.77,10,10,10,10,2,16,T,6,Rain,290
2013-6-7,76,70,63,65,62,58,93,79,64,29.90,29.79,29.73,10,9,7,9,1,15,0.00,6,,80
2013-6-8,79,69,58,62,59,56,93,74,54,30.05,29.97,29.87,10,9,5,6,0,8,0.00,4,,145
2013-6-9,82,73,63,67,64,60,100,79,58,30.10,30.05,29.97,10,5,0,17,2,24,1.06,6,Fog-Rain-Thunderstorm,185
2013-6-10,79,71,62,66,63,61,100,82,64,29.96,29.91,29.85,10,5,1,12,2,21,0.70,7,Rain-Thunderstorm,193
2013-6-11,81,72,62,66,63,61,100,78,56,30.05,29.98,29.92,10,5,0,8,1,15,0.00,6,Fog,220
2013-6-12,91,80,68,73,67,62,81,67,52,30.00,29.93,29.83,10,10,10,9,2,16,0.00,1,,-1
2013-6-13,79,71,62,72,67,57,84,76,67,29.91,29.79,29.70,10,7,1,20,4,32,0.90,6,Rain-Thunderstorm,297
2013-6-14,78,68,57,58,56,55,93,70,47,30.07,29.99,29.90,10,10,10,9,1,15,0.00,1,,319
2013-6-15,81,69,56,61,57,54,93,68,42,30.14,30.08,30.01,10,9,1,7,1,13,0.00,1,,157
2013-6-16,82,74,65,70,66,61,100,81,62,30.08,30.04,30.00,10,5,0,13,1,22,0.72,5,Fog-Rain-Thunderstorm,217
2013-6-17,84,74,64,70,65,60,100,81,61,30.05,30.00,29.90,10,5,0,10,1,15,0.84,5,Fog-Rain-Thunderstorm,140
2013-6-18,77,70,63,64,63,61,100,82,64,30.02,29.93,29.86,10,4,0,9,1,16,0.68,7,Fog-Rain,328
2013-6-19,80,72,63,66,63,60,100,77,54,30.12,30.05,29.95,10,6,0,5,0,8,0.00,5,Fog,130
2013-6-20,82,72,62,63,61,58,93,69,45,30.20,30.16,30.12,10,10,5,5,0,8,0.00,0,,130
2013-6-21,85,75,64,68,64,59,87,71,55,30.23,30.19,30.15,10,10,10,8,1,12,0.00,1,Thunderstorm,93
2013-6-22,86,75,64,68,64,60,93,71,48,30.25,30.17,30.09,10,8,0,7,1,10,0.00,1,Fog,133
2013-6-23,86,76,65,68,65,63,93,72,51,30.19,30.13,30.08,10,10,7,6,1,10,0.00,0,,170
2013-6-24,86,77,67,69,66,64,84,68,51,30.19,30.13,30.08,10,10,9,8,2,15,0.03,2,Rain-Thunderstorm,282
2013-6-25,84,75,66,72,69,65,93,81,69,30.15,30.08,29.98,10,9,5,6,1,12,0.00,2,Thunderstorm,-1
2013-6-26,86,76,66,71,68,64,90,76,61,30.03,29.93,29.83,10,7,1,17,2,25,0.60,4,Rain-Thunderstorm,126
2013-6-27,80,72,64,74,68,64,100,88,76,29.88,29.83,29.75,10,4,0,13,2,20,0.44,7,Fog-Rain-Thunderstorm,289
2013-6-28,85,77,68,70,67,59,100,76,51,29.82,29.75,29.62,10,5,1,13,3,20,0.00,4,,265
2013-6-29,81,72,63,65,63,61,93,72,51,29.72,29.64,29.61,10,10,10,10,2,16,0.00,4,Thunderstorm,310
2013-6-30,81,72,63,68,64,60,93,76,58,29.81,29.74,29.67,10,10,8,9,2,15,0.07,3,Rain-Thunderstorm,126